Location: Taupo
(38.6830°S, 176.0830°E)
Time: 17:06:27
(UTC+13:00)

ISS - Pass Details

Date: 30 January 2019
Orbit: 411 x 421 km, 51.6° (Epoch: 24 October)

Event Time Altitude Azimuth Distance (km) Brightness Sun altitude
Exits shadow 04:01:39 21° 71° (ENE) 1,013 -1.7 -23.1°
Drops below altitude 10° 04:03:35 10° 102° (ESE) 1,510 -0.3 -22.8°
Enters shadow 04:58:42 -72° 307° (NW) 12,545 3.7 -15.1°
Maximum altitude 05:37:38 37° 212° (SSW) 677 -2.7 -8.9°
